Tracking 19720 objects as of 25-Jun-2019
HD Live streaming from Space Station
objects crossing your sky now

CZ-4C DEB

Track CZ-4C DEB now!
10-day predictions


NORAD ID: 39231
Int'l Code: 2013-037H
Perigee: 674.9 km
Apogee: 1,046.6 km
Inclination: 98.1 °
Period: 102.0 minutes
Semi major axis: 7231 km
RCS: Unknown
Launch date: July 19, 2013
Source: People's Republic of China (PRC)
Launch site: Taiyaun Space Center, China (TSC)

Note: This is SATELLITE DEBRIS
aabbcc
Your satellite tracking list
Your tracking list is empty




NASA's NSSDC Master Catalog

Two Line Element Set (TLE):
1 39231U 13037H   19176.40019701  .00000049  00000-0  35120-4 0  9996
2 39231  98.0846  21.6210 0256951  64.8796 297.8801 14.11687912300340
Source of the keplerian elements: AFSPC